ON4CCM-13 Weather Reports


time (UTC)temp
C
wind
direction
speed
KPH
gust
KPH
rain 1hr
cm
rain 24hr
cm
rain mn
cm
humidity
%
barometer
mb
20260505210050 11 20 3.2 9.7 0.00 0.56 0.13 89 1011.8
20260505205045 11 86 1.6 8.0 0.00 0.66 0.13 91 1011.8
20260505204043 11 17 3.2 11.3 0.00 0.81 0.13 92 1011.8
20260505203037 11 315 0.0 3.2 0.00 0.89 0.13 91 1011.9
20260505202035 11 0.0 0.0 0.00 1.09 0.13 91 1011.8
20260505201120 11 0.0 0.0 0.00 1.37 0.13 90 1011.8
20260505200056 11 112 1.6 3.2 0.00 1.83 0.13 89 1011.7
20260505195052 11 0.0 0.0 0.00 2.11 0.13 89 1011.6
20260505194050 11 0.0 0.0 0.00 2.77 0.13 88 1011.6
20260505193045 11 0.0 0.0 0.00 3.15 0.13 88 1011.5
20260505192042 11 0.0 0.0 0.00 3.15 0.13 87 1011.5
20260505191039 11 0.0 0.0 0.00 3.15 0.13 86 1011.4
20260505190034 11 0.0 0.0 0.00 3.15 0.13 86 1011.3
20260505185033 11 315 0.0 3.2 0.00 3.15 0.13 85 1011.3
20260505184026 11 315 0.0 3.2 0.00 3.15 0.13 84 1011.3
20260505183022 11 0.0 1.6 0.00 3.15 0.13 84 1011.4
20260505182018 11 135 0.0 3.2 0.00 3.15 0.13 84 1011.3
20260505181117 11 90 1.6 4.8 0.00 3.15 0.13 83 1011.4
20260505180111 11 120 0.0 3.2 0.00 3.15 0.13 83 1011.3
20260505175107 11 105 1.6 6.4 0.00 3.15 0.13 83 1011.2
20260505174104 12 23 0.0 3.2 0.00 3.15 0.13 83 1011.4
20260505173100 12 90 0.0 3.2 0.00 3.15 0.13 83 1011.5
20260505172056 12 72 0.0 4.8 0.00 3.15 0.13 82 1011.4
20260505171052 12 45 0.0 6.4 0.00 3.15 0.13 83 1011.5
20260505170050 12 95 1.6 8.0 0.00 3.15 0.13 83 1011.5
20260505165044 12 54 1.6 4.8 0.00 3.15 0.13 83 1011.5
20260505164040 12 51 1.6 6.4 0.00 3.15 0.13 84 1011.6
20260505163037 12 38 1.6 6.4 0.00 3.17 0.13 84 1011.7
20260505162033 12 122 1.6 8.0 0.00 3.17 0.13 85 1011.7
20260505161030 12 135 1.6 3.2 0.00 3.20 0.13 85 1011.8
20260505153115 12 39 3.2 8.0 0.00 3.38 0.13 88 1011.8
20260505152111 12 34 3.2 8.0 0.00 3.51 0.13 87 1011.9
20260505151107 12 86 1.6 6.4 0.00 3.71 0.13 88 1012.0
20260505150105 12 75 1.6 6.4 0.00 4.04 0.13 89 1012.0
20260505125015 11 90 1.6 9.7 0.00 4.17 0.13 99 1012.7
20260505124112 11 67 3.2 6.4 0.00 4.17 0.13 99 1012.7
20260505123110 11 50 3.2 8.0 0.00 4.17 0.13 99 1012.8
20260505122105 11 101 1.6 12.9 0.00 4.17 0.13 99 1012.9
20260505121102 11 210 3.2 8.0 0.00 4.17 0.13 99 1012.8
20260505120057 11 55 1.6 8.0 0.00 4.17 0.13 99 1012.9
20260505115054 11 352 1.6 6.4 0.00 4.17 0.13 99 1013.0
20260505114050 10 31 1.6 8.0 0.00 4.17 0.13 99 1013.0
20260505113046 10 65 3.2 11.3 0.00 4.17 0.13 99 1013.2
20260505112042 10 208 3.2 12.9 0.00 4.17 0.13 99 1013.1
20260505111040 10 84 1.6 9.7 0.00 4.17 0.13 99 1013.2
20260505102022 10 158 3.2 16.1 0.00 4.17 0.13 99 1013.4
20260505101018 10 72 3.2 12.9 0.00 4.17 0.13 99 1013.4
20260505100133 10 49 4.8 11.3 0.00 4.17 0.13 99 1013.4
20260505095111 10 77 1.6 8.0 0.00 4.17 0.13 99 1013.5
20260505094108 10 122 1.6 6.4 0.00 4.17 0.13 99 1013.4
20260505093102 10 348 3.2 8.0 0.00 4.17 0.13 99 1013.4
20260505092059 10 58 1.6 8.0 0.00 4.17 0.13 99 1013.4
20260505091054 10 45 3.2 6.4 0.00 4.17 0.13 99 1013.3
20260505090050 10 129 3.2 11.3 0.00 4.17 0.13 99 1013.5
20260505085047 10 92 3.2 8.0 0.00 4.17 0.13 99 1013.4
20260505084043 10 89 3.2 6.4 0.00 4.17 0.13 99 1013.5
20260505083040 10 69 1.6 4.8 0.00 4.17 0.13 99 1013.3
20260505082100 10 77 1.6 6.4 0.00 4.17 0.13 99 1013.4
20260505081032 10 36 4.8 12.9 0.00 4.17 0.13 99 1013.5
20260505080029 10 353 0.0 9.7 0.00 4.17 0.13 99 1013.5
20260505075047 10 7 1.6 8.0 0.00 4.17 0.13 99 1013.5
20260505074023 10 94 3.2 9.7 0.00 4.17 0.13 99 1013.5
20260505073019 10 357 3.2 12.9 0.00 4.17 0.13 99 1013.4
20260505072114 10 315 1.6 4.8 0.00 4.17 0.13 99 1013.4
20260505071111 10 49 6.4 12.9 0.00 4.17 0.13 99 1013.3
20260505070128 10 33 3.2 8.0 0.00 4.17 0.13 99 1013.4
20260505065125 10 68 1.6 8.0 0.00 4.17 0.13 99 1013.4
20260505064100 10 117 3.2 9.7 0.00 4.17 0.13 99 1013.5
20260505063056 10 25 1.6 8.0 0.00 4.17 0.13 99 1013.5
20260505062052 10 6 1.6 6.4 0.00 4.17 0.13 99 1013.5
20260505061048 10 356 1.6 11.3 0.00 4.17 0.13 99 1013.5
20260505060044 10 2 3.2 8.0 0.00 4.17 0.13 99 1013.5
20260505055042 10 314 1.6 6.4 0.00 4.17 0.13 99 1013.5
20260505054039 10 79 1.6 8.0 0.00 4.17 0.13 99 1013.3
20260505053034 10 358 1.6 8.0 0.00 4.17 0.13 99 1013.3
20260505052030 10 360 1.6 6.4 0.00 4.17 0.13 99 1013.3
20260505051026 10 90 1.6 6.4 0.00 4.17 0.13 99 1013.3
20260505041105 11 338 0.0 4.8 0.00 4.17 0.13 99 1013.2
20260505040100 11 315 0.0 4.8 0.00 4.17 0.13 99 1013.2
20260505035058 11 135 0.0 6.4 0.00 4.17 0.13 99 1013.2
20260505034053 11 99 1.6 6.4 0.00 4.17 0.13 99 1013.3
20260505033049 11 86 1.6 6.4 0.00 4.19 0.13 99 1013.3
20260505032041 11 237 1.6 8.0 0.00 4.19 0.13 99 1013.3
20260505031038 11 320 1.6 6.4 0.00 4.19 0.13 99 1013.3
20260505030035 11 28 1.6 6.4 0.00 4.19 0.13 99 1013.3
20260505025031 11 333 1.6 8.0 0.00 4.19 0.13 99 1013.5
20260505024026 11 345 1.6 6.4 0.00 4.19 0.13 99 1013.5
20260505023043 11 103 1.6 6.4 0.00 4.19 0.13 99 1013.6
20260505022019 11 23 1.6 6.4 0.00 4.19 0.13 99 1013.6
20260505021016 11 45 0.0 3.2 0.00 4.19 0.13 99 1013.6
20260505020111 12 349 1.6 9.7 0.00 4.19 0.13 99 1013.4
20260505015108 11 73 3.2 11.3 0.00 4.19 0.13 99 1013.5
20260505014106 12 303 1.6 6.4 0.00 4.19 0.13 99 1013.5
20260505013101 12 335 4.8 14.5 0.00 4.19 0.13 99 1013.6
20260505012058 12 23 1.6 9.7 0.00 4.19 0.13 99 1013.7
20260505011115 12 3 3.2 11.3 0.00 4.19 0.13 99 1013.7
20260505010050 12 317 1.6 11.3 0.03 4.19 0.13 99 1013.8
20260505005047 12 326 1.6 6.4 0.03 4.19 0.13 99 1013.9
20260505004104 12 335 1.6 9.7 0.03 4.19 0.13 99 1014.0
20260505003038 12 274 1.6 11.3 0.03 4.19 0.13 99 1013.8
20260505002035 12 29 1.6 6.4 0.03 4.19 0.13 99 1013.9
20260505001030 12 318 1.6 8.0 0.03 4.19 0.13 99 1014.0
20260505000047 12 293 1.6 4.8 0.00 4.17 0.10 99 1014.0
20260504235023 12 113 1.6 6.4 0.00 4.17 0.10 99 1014.0
20260504234039 12 305 1.6 12.9 0.00 4.17 0.10 99 1014.1
20260504233016 13 78 1.6 6.4 0.00 4.17 0.10 99 1014.1
20260504232112 13 338 0.0 4.8 0.00 4.17 0.10 99 1014.0
20260504231106 13 318 3.2 11.3 0.03 4.17 0.10 99 1014.2
20260504225058 13 45 0.0 6.4 0.13 4.17 0.10 99 1014.3
20260504224055 13 23 0.0 3.2 0.20 4.17 0.10 99 1014.4
20260504223052 13 0.0 3.2 0.30 4.17 0.10 99 1014.4
20260504222049 13 0.0 0.0 0.38 4.17 0.10 99 1014.5
20260504221044 13 293 0.0 3.2 0.48 4.14 0.05 99 1014.6
20260504220040 13 293 0.0 3.2 0.48 4.11 0.03 99 1014.8
20260504215036 13 0.0 3.2 0.51 4.04 4.04 99 1014.9
20260504214034 13 0.0 1.6 0.56 3.96 3.96 99 1015.0
20260504213049 13 180 0.0 3.2 0.56 3.86 3.86 99 1015.0
20260504212025 13 0.0 3.2 0.66 3.78 3.78 99 1015.3
20260504211101 13 0.0 0.0 0.84 3.66 3.66 99 1015.2